Location: site
(53.0000°N, 23.0500°E)
Time: 22:12:02
(UTC+01:00)

SAOCOM 1-A - Pass Details

Date: 21 January 2020
Orbit: 621 x 623 km, 97.9° (Epoch: 24 February)

Event Time Altitude Azimuth Distance (km) Brightness Sun altitude
Rises 03:30:35 0° 129° (SE) 2,899 ? -35.0°
Reaches altitude 10° 03:33:03 10° 116° (ESE) 1,997 ? -34.7°
Enters shadow 03:35:41 23° 81° (E) 1,330 ? -34.3°
